User: anonymous   Login
Location: Castiglione Fibocchi
(43.5333°N, 11.7667°E)
Time: 15:53:11
(UTC+00:00)
Language:

Cosmos 2292 Rocket - Orbit

View from above orbital plane
View from above orbital plane
View from above satellite
View from above satellite

Ground track
Ground track

The orbit data is extracted from the following two-line orbital elements,

1 23279U 94061B   20296.10405653  .00001129  00000-0  72312-4 0  9998
2 23279  82.9653 124.3747 0735657  30.9453 333.2975 13.93460052295363
Epoch (UTC): 22 October 2020 02:29:50
Eccentricity: 0.0735657
inclination: 82.9653°
perigee height: 380 km
apogee height: 1453 km
right ascension of ascending node: 124.3747°
argument of perigee: 30.9453°
revolutions per day: 13.93460052
mean anomaly at epoch: 333.2975°
orbit number at epoch: 29536

The dashed part of the orbit path shows where the satellite is in the earth's shadow,  

DLR